Tracking 28790 objects as of 19-Apr-2024
HD Live streaming from Space Station
objects crossing your sky now

LES 8

Track LES 8 now!
LES 8 is classified as:


NORAD ID: 8746
Int'l Code: 1976-023A
Perigee: 35,657.6 km
Apogee: 35,931.3 km
Inclination: 20.9 °
Period: 1,436.1 minutes
Semi major axis: 42165 km
RCS: 1.7833 m2 (large)
Launch date: March 15, 1976
Source: United States (US)
Launch site: AIR FORCE EASTERN TEST RANGE (AFETR)
Your satellite tracking list
Your tracking list is empty




NASA's NSSDC Master Catalog

Two Line Element Set (TLE):
1 08746U 76023A   24109.39798274 -.00000087  00000-0  00000-0 0  9994
2 08746  20.9032  47.1261 0032457 131.3838  64.2970  1.00269335121766
Source of the keplerian elements: AFSPC